SCP
-0 -0 -0 -0 -0 -0 -0 0 0 0 0 0 -0 -0 0 0 0 -0 0 0 0 0 0 0 0 0 0 0 0 -0 0 0 0 0 0 0 0 0 0 -0 0 0 0 -0 -0
-0 -0 -0 -0 -0 -0 -0 0 0 0 0 0 -0 -0 0 0 -0 0 0 0 0 0 0 0 0 -0 0 0 0 0 0 0 0 0 0 -0 -0 0 0 0 0 -0 -0 -0 -0
-0 -0 -0 -0 -0 -0 -0 -0 -0 0 0 -0 -0 -0 0 0 0 0 0 0 0 0 0 0 -0 0 0 0 0 0 0 0 0 0 -0 0 0 0 -0 0 -0 -0 -0 -0 -0
-0 -0 -0 -0 -0 -0 -0 -0 -0 -0 0 0 0 -0 -0 -0 0 0 0 0 0 0 0 0 0 -0 0 -0 0 -0 0 0 0 0 -0 -0 0 0 0 0 -0 -0 -0 -0 -0
-0 -0 -0 -0 -0 -0 -0 -0 -0 -0 0 0 0 0 -0 0 0 0 0 0 0 0 0 0 0 -0 -0 -0 0 -0 -0 0 -0 -0 -0 -0 0 0 0 -0 -0 -0 -0 0 0
-0 -0 -0 -0 -0 -0 -0 -0 -0 -0 -0 0 0 0 -0 0 0 0 0 0 0 0 0 0 -0 -0 0 -0 0 0 0 -0 -0 -0 0 -0 0 0 -0 -0 0 0 0 0 0
-0 -0 -0 -0 -0 -0 -0 -0 -0 -0 -0 0 0 0 0 -0 0 0 0 0 0 0 0 0 -0 0 -0 0 0 0 0 0 0 0 0 0 0 -0 -0 -0 -0 0 0 0 0
-0 -0 -0 -0 -0 -0 -0 -0 -0 -0 -0 0 0 0 0 0 0 0 0 0 0 0 0 0 0 0 0 -0 0 0 0 0 0 0 0 0 0 0 -0 -0 -0 -0 -0 -0 0
-0 -0 -0 -0 -0 -0 -0 -0 -0 -0 0 0 0 0 0 -0 -0 -0 0 0 0 0 0 0 0 0 0 0 0 -0 0 0 0 0 0 0 0 0 -0 -0 -0 -0 -0 -0 -0
-0 -0 -0 -0 -0 -0 -0 -0 0 0 0 0 0 0 0 0 0 0 0 0 0 0 0 0 0 0 0 0 -0 -0 0 0 0 0 0 0 0 0 0 0 -0 -0 -0 -0 -0
-0 -0 -0 -0 -0 -0 -0 0 0 0 0 0 0 -0 0 0 0 0 -0 0 0 0 0 0 0 0 0 -0 -0 0 0 0 0 0 0 0 -0 0 0 0 -0 -0 -0 -0 -0
-0 -0 -0 -0 -0 0 0 0 0 0 -0 -0 0 0 -0 -0 0 0 -0 0 0 0 0 0 0 0 0 0 0 -0 0 0 0 0 -0 0 -0 -0 0 -0 -0 -0 -0 -0 -0
0 -0 -0 -0 -0 0 0 0 0 0 -0 -0 -0 -0 -0 -0 0 0 -0 0 0 0 0 0 0 0 0 0 0 0 0 0 0 0 -0 -0 -0 0 -0 -0 -0 -0 -0 -0 -0
0 0 0 -0 0 0 0 0 0 0 0 0 0 0 -0 0 -0 0 0 0 0 0 0 0 0 0 0 0 0 0 -0 0 0 -0 0 -0 -0 0 0 -0 -0 -0 -0 -0 -0
0 0 0 0 0 0 0 0 0 0 0 0 0 0 0 0 0 0 -0 0 0 0 0 0 0 0 0 0 0 0 0 0 -0 -0 0 0 -0 0 -0 0 -0 -0 -0 -0 -0
0 0 0 0 0 0 0 0 0 0 0 0 0 0 0 0 0 0 0 0 0 0 0 0 0 0 0 0 0 0 -0 0 -0 0 0 0 -0 0 0 0 0 -0 -0 -0 -0
0 0 0 0 0 0 0 0 0 0 0 0 -0 0 0 0 0 0 0 0 0 0 0 0 0 0 0 0 0 0 0 0 0 0 0 0 0 0 0 0 0 -0 -0 -0 -0
-0 -0 0 0 0 0 0 0 0 0 -0 0 0 0 0 0 0 0 0 0 0 0 0 0 0 0 0 0 0 0 0 -0 0 0 0 0 0 0 0 0 0 0 0 0 0
-0 0 -0 0 0 0 0 0 -0 -0 0 0 0 0 0 -0 0 0 0 0 0 0 0 0 0 0 0 0 0 0 0 0 -0 -0 -0 0 0 0 0 0 0 0 0 0 0
0 0 0 0 0 0 0 0 -0 0 -0 0 0 0 0 0 0 0 0 0 0 0 0 0 0 0 0 0 0 0 0 0 0 0 -0 0 0 0 0 0 0 0 1 1 1
0 0 0 0 0 0 0 0 -0 -0 -0 -0 0 0 0 0 0 0 0 0 0 0 0 0 0 0 0 0 0 0 0 0 0 0 0 0 0 0 0 0 0 0 0 0 0
0 0 0 0 0 0 0 0 0 -0 -0 -0 -0 0 0 0 0 0 0 -0 -0 0 0 0 0 0 0 0 0 0 0 0 0 0 0 0 0 -0 -0 0 -0 0 0 0 0
0 0 0 -0 0 0 0 0 0 0 0 0 0 0 0 0 0 0 0 0 0 0 0 0 0 0 0 0 0 0 0 0 0 0 0 0 0 0 -0 0 0 0 0 3 1
0 0 0 -0 0 0 0 0 0 0 0 0 0 0 0 0 0 0 0 0 0 0 0 0 0 0 0 0 0 0 0 0 0 0 0 0 0 0 0 -0 0 0 2 4 0
0 0 0 0 0 0 0 0 0 0 0 0 0 0 0 0 0 0 0 0 0 0 0 0 0 0 0 0 0 0 0 0 0 0 0 0 0 0 0 0 0 2 2 0 0
0 0 0 0 0 0 0 0 0 0 0 0 0 0 0 0 0 0 0 0 0 0 0 0 0 0 0 0 0 0 0 -0 0 -0 -0 0 0 0 1 1 1 0 0 0 0
0 0 0 0 0 0 0 0 0 0 0 0 0 0 0 0 0 0 -0 -0 -0 0 0 0 0 0 0 0 0 0 0 -0 0 0 0 0 0 0 0 2 1 1 1 0 0
Wind_Speed_500mb
23 24 25 26 26 27 28 29 29 28 29 30 31 31 34 35 33 35 39 19 14 9 10 13 14 16 8 7 9 8 8 5 6 3 2 29 20 31 39 57 21 31 53 79 77
25 26 27 28 28 28 29 30 30 29 29 31 32 33 35 39 38 37 26 22 23 14 6 16 23 13 9 14 7 9 5 9 4 12 9 23 41 35 21 31 20 38 66 83 84
27 29 30 30 30 31 31 31 31 30 30 31 32 34 34 36 37 9 5 18 20 13 1 8 15 26 21 10 12 6 5 24 36 44 37 17 24 20 41 7 63 72 87 87 83
30 31 31 32 32 33 33 32 31 31 30 31 32 33 34 29 8 3 9 5 15 16 9 25 12 26 3 5 10 13 25 32 28 47 41 22 40 23 23 22 58 90 96 92 86
33 34 34 34 34 34 34 34 32 31 31 31 32 31 32 19 34 19 20 6 14 20 19 19 27 17 10 11 4 6 10 46 65 69 73 58 28 22 26 60 66 84 85 88 89
36 36 36 36 37 37 36 35 33 32 31 31 29 30 26 14 18 11 11 13 14 24 20 20 28 22 28 7 9 12 8 52 68 82 27 38 27 21 47 70 71 77 74 81 83
38 37 37 38 39 39 37 36 34 32 32 31 28 29 32 53 8 14 11 18 20 26 22 22 24 20 16 9 19 17 24 28 16 11 6 36 10 17 70 78 72 70 73 80 76
40 39 38 38 40 41 39 37 36 34 32 30 25 26 31 44 37 36 33 37 21 18 22 21 26 29 22 50 6 19 14 14 16 14 4 15 9 26 69 70 64 66 71 78 73
40 40 39 39 41 42 40 37 37 34 32 27 19 17 33 22 32 35 31 34 23 23 28 30 39 31 32 17 9 9 20 15 29 6 5 10 12 29 65 67 61 66 71 73 77
41 41 39 40 41 44 39 36 33 31 29 22 22 12 42 28 13 29 30 26 36 31 44 41 25 8 4 8 13 20 14 14 12 8 11 1 3 27 54 59 67 69 69 72 82
42 41 40 37 38 44 39 24 15 1 11 27 19 31 50 23 31 22 30 29 35 31 12 18 7 10 21 17 4 14 8 9 9 15 9 8 9 9 41 41 47 61 67 72 84
42 42 40 37 36 39 38 25 14 14 23 38 46 61 73 50 37 36 24 37 26 16 5 6 7 19 12 11 16 14 7 6 8 13 6 15 19 17 33 51 59 66 67 73 76
40 41 40 35 36 33 31 17 25 45 12 37 61 61 74 25 35 49 26 46 12 12 15 16 13 13 13 10 12 12 7 4 5 9 10 6 17 25 24 61 67 67 80 80 90
40 40 39 38 23 18 18 14 35 11 6 15 15 27 46 34 16 52 42 50 12 22 8 9 8 16 5 7 6 3 1 9 3 13 6 10 10 10 15 28 48 68 67 77 86
44 40 36 36 28 30 17 23 19 15 6 9 11 8 36 37 11 19 37 46 22 14 14 12 20 15 8 11 11 15 5 5 9 4 11 23 6 23 7 13 43 53 75 78 87
46 41 40 33 41 22 17 14 6 10 14 11 15 13 15 20 27 5 15 27 40 15 10 13 5 10 16 2 8 11 17 45 14 10 8 19 14 14 14 18 33 49 74 73 73
47 40 46 41 30 6 9 8 8 8 10 11 9 11 11 15 12 14 10 6 15 11 11 6 9 8 11 12 7 5 14 4 9 3 10 7 11 14 14 13 20 41 63 69 78
46 42 42 49 28 26 15 8 8 9 12 13 12 9 18 12 15 16 10 14 10 13 8 13 10 13 15 17 21 16 15 10 9 3 7 13 6 9 12 14 26 33 55 51 48
48 37 43 33 29 30 13 5 16 12 6 13 21 9 8 9 14 18 18 17 18 21 21 12 14 2 1 9 22 14 11 13 12 5 4 9 12 16 14 18 25 35 52 43 39
47 36 36 30 31 43 8 13 11 8 12 12 5 7 19 9 8 17 21 18 17 28 18 17 9 0 3 10 7 14 23 9 5 4 5 7 9 9 13 8 10 3 39 47 47
32 19 20 28 38 31 8 15 11 16 27 11 10 13 11 13 6 3 19 22 30 26 28 18 14 11 9 1 13 4 7 9 11 10 10 6 12 15 27 28 16 23 49 55 54
18 5 13 47 10 6 5 11 6 7 37 14 10 15 14 9 4 3 11 21 37 30 21 20 14 8 6 6 6 5 7 12 11 8 8 7 13 18 39 37 36 42 43 61 70
33 13 31 37 7 6 10 16 20 22 26 12 10 11 12 14 1 10 12 12 28 23 25 16 7 8 9 8 1 8 11 11 11 10 15 10 13 11 46 19 45 53 47 72 79
13 8 3 42 18 5 8 13 16 30 20 25 24 14 9 8 6 8 14 14 36 12 57 34 12 18 22 16 11 9 13 26 14 10 17 14 22 18 7 12 22 54 60 67 80
17 7 15 7 10 14 4 11 29 30 17 12 13 18 19 6 13 7 8 15 24 27 5 12 13 4 10 15 15 14 14 11 4 26 9 34 17 12 11 18 34 55 60 70 73
17 14 19 19 26 12 8 9 21 30 12 31 11 25 20 16 17 14 3 2 6 15 16 16 11 11 4 16 19 11 24 24 40 47 35 19 14 16 46 60 68 71 55 45 37
32 18 8 15 12 9 1 17 29 28 26 31 24 5 11 23 24 15 11 9 11 4 6 3 13 12 11 14 18 4 18 30 40 25 21 13 18 18 43 41 55 52 72 65 59
Wind_Direction_500mb
325 325 325 324 323 323 322 321 323 324 323 321 320 321 316 315 311 295 280 257 238 266 280 335 356 306 285 13 50 67 51 300 260 299 139 127 113 136 149 140 160 188 169 161 161
324 322 321 319 320 318 317 317 317 318 319 317 317 319 319 321 315 292 278 237 230 231 294 19 33 110 335 4 14 75 157 242 307 343 324 150 131 129 127 146 111 122 147 154 160
320 318 317 316 317 315 312 313 313 313 314 314 313 316 319 325 324 305 310 215 211 218 269 89 117 28 328 1 355 12 197 310 297 306 310 210 149 127 129 131 146 144 153 158 161
315 314 313 314 313 310 308 308 309 308 309 309 310 314 318 321 297 69 38 197 206 217 192 129 145 139 98 350 103 354 348 303 308 315 317 287 153 148 168 171 159 155 156 161 169
313 313 314 312 308 306 306 305 305 304 305 305 307 310 316 301 269 282 274 249 216 209 174 136 150 141 155 212 317 164 19 309 304 296 289 263 186 151 137 149 154 154 160 167 173
313 313 312 310 307 305 303 301 301 299 299 299 301 301 302 269 276 253 230 232 253 223 179 159 181 194 164 90 123 226 323 243 272 266 253 132 133 109 148 149 152 158 167 174 178
313 312 311 309 305 303 301 298 297 293 291 292 294 290 282 257 180 320 240 277 270 236 190 178 175 188 122 50 284 279 351 321 284 5 98 108 69 146 156 156 159 166 172 179 184
311 311 310 307 304 301 299 297 293 287 284 285 286 287 264 265 269 253 243 258 234 249 212 206 233 233 105 170 360 24 339 357 321 344 11 125 203 155 159 157 165 172 177 184 189
310 309 309 307 303 300 299 298 289 284 280 279 277 265 268 258 241 227 223 234 227 246 236 228 242 219 147 136 113 124 247 248 297 174 360 52 131 171 168 165 169 179 184 189 194
309 308 308 306 305 302 302 301 290 282 270 265 236 282 254 244 307 226 212 232 227 242 249 248 222 187 118 120 197 177 207 226 247 319 61 1 166 170 182 173 177 183 190 193 199
310 308 306 304 305 303 305 318 303 231 270 236 234 220 268 285 287 253 219 212 229 232 221 262 98 212 229 202 122 123 173 180 277 317 12 323 209 233 199 201 185 187 193 199 203
309 307 305 303 299 296 298 292 290 328 298 277 257 260 265 267 295 255 250 227 207 218 106 344 215 223 219 117 120 155 205 233 307 278 148 273 269 249 188 208 198 192 196 202 206
305 304 304 301 296 290 280 303 348 340 270 274 248 240 248 248 236 253 253 216 165 186 208 187 232 182 175 151 165 173 175 218 86 327 232 165 292 254 210 203 196 206 202 199 204
306 303 304 304 296 274 275 309 330 355 8 272 217 240 223 227 274 247 262 202 179 194 199 214 197 142 100 255 245 200 295 142 128 40 279 103 288 278 174 192 190 200 200 201 205
310 301 297 300 282 280 286 300 357 126 334 237 212 216 197 173 190 223 224 185 194 181 134 229 151 152 149 218 176 233 261 74 12 355 310 301 124 269 314 176 192 198 200 202 204
307 300 289 286 278 293 279 298 21 52 256 286 166 164 118 164 230 295 212 211 213 189 107 169 192 179 185 166 290 82 52 312 306 144 220 235 176 279 246 189 191 200 200 201 201
301 297 283 270 260 261 302 346 59 171 306 287 224 145 154 171 198 193 234 204 181 169 207 146 202 221 130 93 340 98 123 7 312 97 207 250 156 243 300 271 173 178 199 199 202
305 297 273 260 251 251 273 62 192 229 255 316 351 301 177 155 221 208 203 229 239 148 140 159 276 181 170 168 187 185 160 146 241 275 271 321 353 274 299 299 108 141 158 159 186
317 302 276 252 236 213 188 137 209 208 291 4 339 156 235 206 163 181 205 216 208 186 194 153 246 105 194 177 140 216 140 177 110 206 292 294 302 312 324 48 83 105 110 107 106
328 313 279 249 205 180 102 237 226 244 19 27 298 21 355 309 150 191 188 208 218 200 168 212 241 274 179 82 28 176 155 117 59 177 235 299 280 232 298 324 75 114 122 115 103
331 323 326 162 167 161 175 240 280 300 340 358 315 287 234 261 107 241 219 247 197 213 195 184 167 239 117 48 172 184 131 77 140 145 162 185 255 217 221 229 165 210 148 127 109
358 339 172 151 98 164 218 220 315 300 305 297 263 250 226 244 223 324 220 223 214 196 186 200 158 161 182 196 223 172 160 137 124 244 256 186 264 222 206 228 174 171 157 130 122
339 302 185 182 141 233 272 258 244 268 264 261 290 306 314 250 236 188 303 283 292 214 192 178 187 101 3 5 244 206 190 141 106 82 241 181 263 217 225 175 178 162 136 128 127
360 1 51 229 279 108 352 278 274 272 259 254 265 296 295 309 131 285 300 302 344 315 209 165 142 180 207 196 156 184 203 187 151 142 242 220 258 301 185 186 137 124 128 127 135
16 350 7 334 322 326 324 257 290 287 269 277 301 230 226 211 334 302 299 331 341 358 277 143 145 124 195 221 157 199 207 197 91 267 211 264 213 222 119 124 113 121 127 132 134
17 4 343 296 297 320 300 4 337 335 258 282 199 293 229 181 185 266 273 351 264 330 2 343 156 62 260 177 190 221 193 209 213 241 227 184 162 259 108 124 128 125 114 101 103
3 347 320 295 325 328 342 336 315 338 314 261 264 281 277 243 196 188 178 216 229 290 326 35 131 159 212 181 158 325 202 218 240 279 153 180 209 144 132 137 141 145 148 157 162
Wind_Speed_850mb
23 24 25 26 26 27 28 29 29 28 29 30 31 31 34 35 33 35 39 19 14 9 10 13 14 16 8 7 9 8 8 5 6 3 2 29 20 31 39 57 21 31 53 79 77
25 26 27 28 28 28 29 30 30 29 29 31 32 33 35 39 38 37 26 22 23 14 6 16 23 13 9 14 7 9 5 9 4 12 9 23 41 35 21 31 20 38 66 83 84
27 29 30 30 30 31 31 31 31 30 30 31 32 34 34 36 37 9 5 18 20 13 1 8 15 26 21 10 12 6 5 24 36 44 37 17 24 20 41 7 63 72 87 87 83
30 31 31 32 32 33 33 32 31 31 30 31 32 33 34 29 8 3 9 5 15 16 9 25 12 26 3 5 10 13 25 32 28 47 41 22 40 23 23 22 58 90 96 92 86
33 34 34 34 34 34 34 34 32 31 31 31 32 31 32 19 34 19 20 6 14 20 19 19 27 17 10 11 4 6 10 46 65 69 73 58 28 22 26 60 66 84 85 88 89
36 36 36 36 37 37 36 35 33 32 31 31 29 30 26 14 18 11 11 13 14 24 20 20 28 22 28 7 9 12 8 52 68 82 27 38 27 21 47 70 71 77 74 81 83
38 37 37 38 39 39 37 36 34 32 32 31 28 29 32 53 8 14 11 18 20 26 22 22 24 20 16 9 19 17 24 28 16 11 6 36 10 17 70 78 72 70 73 80 76
40 39 38 38 40 41 39 37 36 34 32 30 25 26 31 44 37 36 33 37 21 18 22 21 26 29 22 50 6 19 14 14 16 14 4 15 9 26 69 70 64 66 71 78 73
40 40 39 39 41 42 40 37 37 34 32 27 19 17 33 22 32 35 31 34 23 23 28 30 39 31 32 17 9 9 20 15 29 6 5 10 12 29 65 67 61 66 71 73 77
41 41 39 40 41 44 39 36 33 31 29 22 22 12 42 28 13 29 30 26 36 31 44 41 25 8 4 8 13 20 14 14 12 8 11 1 3 27 54 59 67 69 69 72 82
42 41 40 37 38 44 39 24 15 1 11 27 19 31 50 23 31 22 30 29 35 31 12 18 7 10 21 17 4 14 8 9 9 15 9 8 9 9 41 41 47 61 67 72 84
42 42 40 37 36 39 38 25 14 14 23 38 46 61 73 50 37 36 24 37 26 16 5 6 7 19 12 11 16 14 7 6 8 13 6 15 19 17 33 51 59 66 67 73 76
40 41 40 35 36 33 31 17 25 45 12 37 61 61 74 25 35 49 26 46 12 12 15 16 13 13 13 10 12 12 7 4 5 9 10 6 17 25 24 61 67 67 80 80 90
40 40 39 38 23 18 18 14 35 11 6 15 15 27 46 34 16 52 42 50 12 22 8 9 8 16 5 7 6 3 1 9 3 13 6 10 10 10 15 28 48 68 67 77 86
44 40 36 36 28 30 17 23 19 15 6 9 11 8 36 37 11 19 37 46 22 14 14 12 20 15 8 11 11 15 5 5 9 4 11 23 6 23 7 13 43 53 75 78 87
46 41 40 33 41 22 17 14 6 10 14 11 15 13 15 20 27 5 15 27 40 15 10 13 5 10 16 2 8 11 17 45 14 10 8 19 14 14 14 18 33 49 74 73 73
47 40 46 41 30 6 9 8 8 8 10 11 9 11 11 15 12 14 10 6 15 11 11 6 9 8 11 12 7 5 14 4 9 3 10 7 11 14 14 13 20 41 63 69 78
46 42 42 49 28 26 15 8 8 9 12 13 12 9 18 12 15 16 10 14 10 13 8 13 10 13 15 17 21 16 15 10 9 3 7 13 6 9 12 14 26 33 55 51 48
48 37 43 33 29 30 13 5 16 12 6 13 21 9 8 9 14 18 18 17 18 21 21 12 14 2 1 9 22 14 11 13 12 5 4 9 12 16 14 18 25 35 52 43 39
47 36 36 30 31 43 8 13 11 8 12 12 5 7 19 9 8 17 21 18 17 28 18 17 9 0 3 10 7 14 23 9 5 4 5 7 9 9 13 8 10 3 39 47 47
32 19 20 28 38 31 8 15 11 16 27 11 10 13 11 13 6 3 19 22 30 26 28 18 14 11 9 1 13 4 7 9 11 10 10 6 12 15 27 28 16 23 49 55 54
18 5 13 47 10 6 5 11 6 7 37 14 10 15 14 9 4 3 11 21 37 30 21 20 14 8 6 6 6 5 7 12 11 8 8 7 13 18 39 37 36 42 43 61 70
33 13 31 37 7 6 10 16 20 22 26 12 10 11 12 14 1 10 12 12 28 23 25 16 7 8 9 8 1 8 11 11 11 10 15 10 13 11 46 19 45 53 47 72 79
13 8 3 42 18 5 8 13 16 30 20 25 24 14 9 8 6 8 14 14 36 12 57 34 12 18 22 16 11 9 13 26 14 10 17 14 22 18 7 12 22 54 60 67 80
17 7 15 7 10 14 4 11 29 30 17 12 13 18 19 6 13 7 8 15 24 27 5 12 13 4 10 15 15 14 14 11 4 26 9 34 17 12 11 18 34 55 60 70 73
17 14 19 19 26 12 8 9 21 30 12 31 11 25 20 16 17 14 3 2 6 15 16 16 11 11 4 16 19 11 24 24 40 47 35 19 14 16 46 60 68 71 55 45 37
32 18 8 15 12 9 1 17 29 28 26 31 24 5 11 23 24 15 11 9 11 4 6 3 13 12 11 14 18 4 18 30 40 25 21 13 18 18 43 41 55 52 72 65 59
Wind_Direction_850mb
325 325 325 324 323 323 322 321 323 324 323 321 320 321 316 315 311 295 280 257 238 266 280 335 356 306 285 13 50 67 51 300 260 299 139 127 113 136 149 140 160 188 169 161 161
324 322 321 319 320 318 317 317 317 318 319 317 317 319 319 321 315 292 278 237 230 231 294 19 33 110 335 4 14 75 157 242 307 343 324 150 131 129 127 146 111 122 147 154 160
320 318 317 316 317 315 312 313 313 313 314 314 313 316 319 325 324 305 310 215 211 218 269 89 117 28 328 1 355 12 197 310 297 306 310 210 149 127 129 131 146 144 153 158 161
315 314 313 314 313 310 308 308 309 308 309 309 310 314 318 321 297 69 38 197 206 217 192 129 145 139 98 350 103 354 348 303 308 315 317 287 153 148 168 171 159 155 156 161 169
313 313 314 312 308 306 306 305 305 304 305 305 307 310 316 301 269 282 274 249 216 209 174 136 150 141 155 212 317 164 19 309 304 296 289 263 186 151 137 149 154 154 160 167 173
313 313 312 310 307 305 303 301 301 299 299 299 301 301 302 269 276 253 230 232 253 223 179 159 181 194 164 90 123 226 323 243 272 266 253 132 133 109 148 149 152 158 167 174 178
313 312 311 309 305 303 301 298 297 293 291 292 294 290 282 257 180 320 240 277 270 236 190 178 175 188 122 50 284 279 351 321 284 5 98 108 69 146 156 156 159 166 172 179 184
311 311 310 307 304 301 299 297 293 287 284 285 286 287 264 265 269 253 243 258 234 249 212 206 233 233 105 170 360 24 339 357 321 344 11 125 203 155 159 157 165 172 177 184 189
310 309 309 307 303 300 299 298 289 284 280 279 277 265 268 258 241 227 223 234 227 246 236 228 242 219 147 136 113 124 247 248 297 174 360 52 131 171 168 165 169 179 184 189 194
309 308 308 306 305 302 302 301 290 282 270 265 236 282 254 244 307 226 212 232 227 242 249 248 222 187 118 120 197 177 207 226 247 319 61 1 166 170 182 173 177 183 190 193 199
310 308 306 304 305 303 305 318 303 231 270 236 234 220 268 285 287 253 219 212 229 232 221 262 98 212 229 202 122 123 173 180 277 317 12 323 209 233 199 201 185 187 193 199 203
309 307 305 303 299 296 298 292 290 328 298 277 257 260 265 267 295 255 250 227 207 218 106 344 215 223 219 117 120 155 205 233 307 278 148 273 269 249 188 208 198 192 196 202 206
305 304 304 301 296 290 280 303 348 340 270 274 248 240 248 248 236 253 253 216 165 186 208 187 232 182 175 151 165 173 175 218 86 327 232 165 292 254 210 203 196 206 202 199 204
306 303 304 304 296 274 275 309 330 355 8 272 217 240 223 227 274 247 262 202 179 194 199 214 197 142 100 255 245 200 295 142 128 40 279 103 288 278 174 192 190 200 200 201 205
310 301 297 300 282 280 286 300 357 126 334 237 212 216 197 173 190 223 224 185 194 181 134 229 151 152 149 218 176 233 261 74 12 355 310 301 124 269 314 176 192 198 200 202 204
307 300 289 286 278 293 279 298 21 52 256 286 166 164 118 164 230 295 212 211 213 189 107 169 192 179 185 166 290 82 52 312 306 144 220 235 176 279 246 189 191 200 200 201 201
301 297 283 270 260 261 302 346 59 171 306 287 224 145 154 171 198 193 234 204 181 169 207 146 202 221 130 93 340 98 123 7 312 97 207 250 156 243 300 271 173 178 199 199 202
305 297 273 260 251 251 273 62 192 229 255 316 351 301 177 155 221 208 203 229 239 148 140 159 276 181 170 168 187 185 160 146 241 275 271 321 353 274 299 299 108 141 158 159 186
317 302 276 252 236 213 188 137 209 208 291 4 339 156 235 206 163 181 205 216 208 186 194 153 246 105 194 177 140 216 140 177 110 206 292 294 302 312 324 48 83 105 110 107 106
328 313 279 249 205 180 102 237 226 244 19 27 298 21 355 309 150 191 188 208 218 200 168 212 241 274 179 82 28 176 155 117 59 177 235 299 280 232 298 324 75 114 122 115 103
331 323 326 162 167 161 175 240 280 300 340 358 315 287 234 261 107 241 219 247 197 213 195 184 167 239 117 48 172 184 131 77 140 145 162 185 255 217 221 229 165 210 148 127 109
358 339 172 151 98 164 218 220 315 300 305 297 263 250 226 244 223 324 220 223 214 196 186 200 158 161 182 196 223 172 160 137 124 244 256 186 264 222 206 228 174 171 157 130 122
339 302 185 182 141 233 272 258 244 268 264 261 290 306 314 250 236 188 303 283 292 214 192 178 187 101 3 5 244 206 190 141 106 82 241 181 263 217 225 175 178 162 136 128 127
360 1 51 229 279 108 352 278 274 272 259 254 265 296 295 309 131 285 300 302 344 315 209 165 142 180 207 196 156 184 203 187 151 142 242 220 258 301 185 186 137 124 128 127 135
16 350 7 334 322 326 324 257 290 287 269 277 301 230 226 211 334 302 299 331 341 358 277 143 145 124 195 221 157 199 207 197 91 267 211 264 213 222 119 124 113 121 127 132 134
17 4 343 296 297 320 300 4 337 335 258 282 199 293 229 181 185 266 273 351 264 330 2 343 156 62 260 177 190 221 193 209 213 241 227 184 162 259 108 124 128 125 114 101 103
3 347 320 295 325 328 342 336 315 338 314 261 264 281 277 243 196 188 178 216 229 290 326 35 131 159 212 181 158 325 202 218 240 279 153 180 209 144 132 137 141 145 148 157 162